Hourly Data Report for June 16, 2018

LONDON CS
ONTARIO
Current Station Operator: ECCC - MSC

43°02'00.000" N
81°09'00.000" W
278.00 m
6144478
71622
WSN

Download Data

Hourly Data (June 2018)
Hourly Data Report for June 16, 2018
TIME Temp Definition
°C
Dew Point Definition
°C
Rel Hum Definition
%
Wind Dir Definition
10's deg

Wind Spd Definition
km/h
Visibility Definition
km
Stn Press Definition
kPa
Hmdx Definition


Wind Chill Definition


Weather Definition


00:00 18.5 8.8 53 LegendMM LegendMM   98.48     LegendNANA
01:00 18.0 10.8 63 LegendMM LegendMM   98.48     LegendNANA
02:00 17.4 11.0 66 LegendMM LegendMM   98.42     LegendNANA
03:00 16.6 10.7 68 LegendMM LegendMM   98.39     LegendNANA
04:00 15.5 10.2 71 LegendMM LegendMM   98.40     LegendNANA
05:00 15.5 10.9 74 LegendMM LegendMM   98.39     LegendNANA
06:00 17.0 12.1 73 LegendMM LegendMM   98.45     LegendNANA
07:00 18.9 12.8 68 LegendMM LegendMM   98.52     LegendNANA
08:00 18.8 12.6 68 LegendMM LegendMM   98.55     LegendNANA
09:00 18.5 14.1 76 LegendMM LegendMM   98.49     LegendNANA
10:00 19.2 13.8 71 LegendMM LegendMM   98.46     LegendNANA
11:00 20.8 13.6 63 LegendMM LegendMM   98.45     LegendNANA
12:00 22.1 12.1 53 LegendMM LegendMM   98.43     LegendNANA
13:00 23.3 10.9 46 LegendMM LegendMM   98.43 25   LegendNANA
14:00 23.8 11.9 47 LegendMM LegendMM   98.42 26   LegendNANA
15:00 24.7 14.1 52 LegendMM LegendMM   98.39 28   LegendNANA
16:00 25.3 14.7 52 LegendMM LegendMM   98.32 29   LegendNANA
17:00 25.6 15.5 54 LegendMM LegendMM   98.29 30   LegendNANA
18:00 26.4 16.1 53 LegendMM LegendMM   98.30 31   LegendNANA
19:00 25.8 16.7 57 LegendMM LegendMM   98.32 31   LegendNANA
20:00 23.5 16.6 65 LegendMM LegendMM   98.34 29   LegendNANA
21:00 20.9 16.1 74 LegendMM LegendMM   98.40 26   LegendNANA
22:00 19.1 15.8 81 LegendMM LegendMM   98.43     LegendNANA
23:00 19.2 15.2 77 LegendMM LegendMM   98.45     LegendNANA

Notes on Data Quality.

Legend

  • E = Estimated
  • M = Missing
  • NA = Not Available*
  • [empty] = Indicates an unobserved value
Date modified: